Tracking 22124 objects as of 23-Jan-2021
HD Live streaming from Space Station
objects crossing your sky now

SL-14 DEB

Track SL-14 DEB now!
10-day predictions


NORAD ID: 19139
Int'l Code: 1978-100M
Perigee: 1,700.6 km
Apogee: 1,946.7 km
Inclination: 82.1 °
Period: 123.0 minutes
Semi major axis: 8194 km
RCS: 0.0604 m2 (small)
Launch date: October 26, 1978
Source: Commonwealth of Independent States (former USSR) (CIS)
Launch site: PLESETSK MISSILE AND SPACE COMPLEX (PKMTR)

Note: This is SATELLITE DEBRIS
aabbcc
Your satellite tracking list
Your tracking list is empty




NASA's NSSDC Master Catalog

Two Line Element Set (TLE):
1 19139U 78100M   21022.90079431 -.00000001  00000-0 -15910-3 0  9991
2 19139  82.1404  72.4032 0150118  85.5879  87.2350 11.70326268396515
Source of the keplerian elements: AFSPC